Location: Ústí nad Labem
(50.6611°N, 14.0531°E)
Time: 19:07:12
(UTC+01:00)

ISS - Visible Passes

Search period start: 27 February 2024 00:00
Search period end: 08 March 2024 00:00
Orbit: 414 x 422 km, 51.6° (Epoch: 27 February)

Date Brightness Start Highest point End Pass type
(mag) Time Alt. Az. Time Alt. Az. Time Alt. Az.
27 Feb -3.0 04:34:10 53° ENE 04:34:10 53° ENE 04:36:52 10° ENE visible
27 Feb -3.7 06:07:05 11° WNW 06:10:22 83° N 06:13:46 10° E visible
28 Feb -0.8 03:48:08 17° ENE 03:48:08 17° ENE 03:49:00 10° ENE visible
28 Feb -3.7 05:21:04 32° WNW 05:22:29 75° N 05:25:53 10° E visible
29 Feb -3.3 04:35:00 61° NE 04:35:00 61° NE 04:37:57 10° E visible
29 Feb -3.6 06:08:00 10° WNW 06:11:23 67° SSW 06:14:45 10° ESE visible
01 Mar -1.0 03:48:55 19° E 03:48:55 19° E 03:49:59 10° E visible
01 Mar -3.8 05:21:50 28° WNW 05:23:27 84° SSW 05:26:51 10° ESE visible
02 Mar -3.6 04:35:44 73° ENE 04:35:44 73° ENE 04:38:52 10° E visible
02 Mar -2.9 06:08:57 10° W 06:12:06 36° SSW 06:15:14 10° SE visible
03 Mar -1.1 03:49:39 20° E 03:49:39 20° E 03:50:49 10° E visible
03 Mar -3.4 05:22:35 26° W 05:24:09 51° SSW 05:27:27 10° SE visible
04 Mar -3.5 04:36:31 60° SSE 04:36:31 60° SSE 04:39:30 10° ESE visible
05 Mar -1.1 03:50:29 18° ESE 03:50:29 18° ESE 03:51:25 10° ESE visible
05 Mar -2.5 05:23:25 22° WSW 05:24:32 26° SW 05:27:25 10° SSE visible
06 Mar -2.5 04:37:27 30° S 04:37:27 30° S 04:39:39 10° SE visible
07 Mar -0.7 03:51:35 10° SE 03:51:35 10° SE 03:51:40 10° SE visible
07 Mar -1.7 05:24:32 13° SW 05:24:33 13° SW 05:26:11 10° SSW visible
